Simultaneous Nadir Overpasses (SNOs) Predictions

Prediction of SNOs between GOES-15 and TERRA Satellite Orbit:

Table of predicted SNOs for the next 14.0 days since TLE Epoch: 12/8/2012
Index Date Time (GOES-15) GOES-15 Lat,Lon TERRA Lat,Lon Distance(km) Time Diff (sec)
1 12/08/2012 19:18:44 -0.11,-135.38 -0.66,-132.65 309.51 80
2 12/09/2012 07:42:47 0.09,-135.35 -0.45,-137.84 283.42 80
3 12/11/2012 07:27:57 0.10,-135.37 0.19,-134.88 55.33 80
4 12/13/2012 07:15:46 0.10,-135.39 0.85,-131.93 393.39 80
5 12/13/2012 19:39:40 -0.08,-135.43 0.28,-137.08 188.40 80
6 12/15/2012 19:24:49 -0.08,-135.44 -0.38,-134.13 149.33 80
7 12/16/2012 07:48:52 0.06,-135.41 -0.80,-139.30 443.28 80
8 12/17/2012 19:12:37 -0.08,-135.45 -0.98,-131.16 486.90 80
9 12/18/2012 07:36:41
